Вернуться в каталог

SL-14 R/B

АктивенPO
NORAD 19852·ROCKET BODY·🇷🇺 Russia

Запущен Feb 28, 1989 с Plesetsk Cosmodrome

Loading…

Ближайшие Пролёты (ближайшие 24 часа)

TLE

СвежийSource: Space-Track

Эпоха: Sep 14, 2026, 13:16 UTC

1 19852U 89018B   26257.55329928  .00000034  00000-0  17319-4 0  9998
2 19852  82.5200 122.1158 0016516 318.5960  41.3947 13.84174243896407

Отслеживайте SL-14 R/B в реальном времени с AllMySat

Download on the App Store